sat.trackr.live / text

‹ back to catalog

GSAT0203 (GALILEO 7)

NORAD 40544 · 2015-017A

PAYLOAD ACTIVE UNKNOWN

§ Identity

Operator
Country
ESA
Launch date
2015-03-27
Launch site
FRGUI
Launch vehicle
Mass (kg)
RCS (m²)
8.45

Purposes: earth_obs, nav

External: N2YO · Heavens-Above · Gunter

§ Orbital elements

Epoch: 2026-09-09T02:15:32.037120Z

Period
844.69 min
Inclination
56.7527°
Eccentricity
0.0004460
Mean motion
1.70476378 rev/d
Perigee alt
23,208.7 km
Apogee alt
23,235.1 km
Semi-major
29,600.0 km
B*
0.0000e+0
RAAN
339.3092°
Arg perigee
251.6359°
Mean anomaly
108.3566°
Rev number
7,063

§ Raw data

GSAT0203 (GALILEO 7)1 40544U 15017A   26252.09412080 -.00000100  00000+0  00000+0 0  99922 40544  56.7527 339.3092 0004460 251.6359 108.3566  1.70476378 70633

JSON: /api/v1/satellites/40544 · /tle

For live sub-satellite position, see the globe view (requires WebGL).

§ Visibility from observer

Set your observer location to see the next 7 days of passes ≥ 10°. The values pass through the URL so the page stays shareable.

No JS? Fill the form by hand. The geolocation button needs JavaScript.